Retour au catalogue

COSMOS 1989

ETALON 1

ActifScienceMEO
NORAD 19751·PAYLOAD·🇷🇺 Russia

Lancé Jan 10, 1989 depuis Baikonur Cosmodrome

Loading…

Prochains Passages (prochaines 24 heures)

TLE

FraisSource: CelesTrak SupGP

Époque: Sep 14, 2026, 00:00 UTC

1 19751C 89001C   26257.00000000  .00000000  00000+0  00000+0 0  2578
2 19751  65.0023  69.1608 0023485 217.4276 218.7953  2.13156189    14

Suivez COSMOS 1989 en temps réel avec AllMySat

Download on the App Store